[[{"header":{"parameterUnit":"m.s-1","parameterCategory":1,"la1":30.2991,"la2":30.254,"lo1":-89.0895,"lo2":-89.0444,"dy":0.0017,"dx":0.0017,"nx":28,"ny":28,"refTime":"2024-04-06T21:00:00:Z","depth":0,"parameterNumber":2,"parameterNumberName":"U-component_of_WINDS"},"data":[0,0,0,0,0,0,0,0,0,0,0,0,0,0,0,0,0,0,0,0,0,0,0,0,0,0,0,0,0,0,0,0,0,0,0,0,0,0,0,0,0,0,0,0,0,0,0,0,0,0,0,0,0,0,0,0,0,0,-2.9833,-2.9833,0,-2.9863,-2.9863,-2.9863,-2.9808,-2.9806,-2.9804,-2.9802,-2.9833,-2.9835,-2.9838,0,0,0,0,0,0,0,0,0,0,0,0,0,-2.9726,-2.9729,-2.9833,-2.9833,-2.9833,-2.9863,-2.9863,-2.9863,-2.9808,-2.9806,-2.9803,-2.9801,-2.9832,-2.9835,-2.9838,0,0,0,0,0,0,0,0,0,0,0,0,0,-2.9766,-2.9729,-2.9833,-2.9809,-2.9807,-2.9863,-2.9863,-2.9864,-2.9808,-2.9806,-2.9803,-2.98,-2.9831,-2.9835,-2.9838,-2.9918,0,0,-2.985,-2.9852,0,0,0,0,0,0,0,0,-2.9764,-2.977,-2.9812,-2.9811,-2.9809,-2.9828,-2.9837,-2.9882,-2.9809,-2.9808,-2.9802,-2.9799,-2.9834,-2.9837,-2.9849,-2.9919,-2.992,-2.985,-2.9853,-2.9854,-2.9855,0,0,0,0,0,0,0,-2.9761,-2.9769,-2.9844,-2.9813,-2.9811,-2.9797,-2.98,-2.9845,-2.9836,-2.9808,-2.9804,-2.9808,-2.9832,-2.9845,-2.9849,-2.9921,-2.985,-2.9854,-2.9856,-2.9857,-3.0057,-3.006,0,0,0,0,0,0,-2.9762,-2.9767,-2.9843,-2.9845,-2.9779,-2.9801,-2.9804,-2.9825,-2.9835,-2.9834,-2.9811,-2.9805,-2.984,-2.9845,-2.985,-2.9942,-2.9854,-2.9858,-2.986,-3.0054,-3.0057,-3.0061,0,0,0,0,0,0,-2.976,-2.9769,-2.9842,-2.9805,-2.9813,-2.9806,-2.983,-2.9827,-2.984,-2.9837,-2.9835,-2.9826,-2.9838,-2.9844,-2.9901,-2.9943,-2.986,-2.9863,-3.005,-3.0055,-3.0059,-3.0129,0,0,0,0,0,0,-2.9757,-2.9769,-2.9799,-2.9806,-2.9815,-2.9893,-2.9833,-2.983,-2.9847,-2.984,-2.9851,-2.985,-2.9836,-2.9896,-2.9905,-2.9946,-2.9866,-3.0046,-3.0052,-3.0058,-3.0123,-3.0135,-3.0146,0,0,0,0,0,-2.9753,-2.9817,-2.9801,-2.981,-2.9853,-2.9896,-2.9901,-2.9884,-2.985,-2.988,-2.9879,-2.985,-2.9937,-2.9902,-2.9912,-2.9955,-3.0044,-3.0051,-3.0057,-3.0117,-3.0133,-3.0145,0,0,0,0,0,0,-2.9815,-2.9818,-2.9799,-2.9868,-2.9882,-2.9886,-2.9924,-2.9901,-2.9925,-2.9918,-2.9896,-2.9898,-2.9959,-2.9963,-2.9924,-3.0032,-2.9985,-2.9994,-3.0027,-3.0041,-3.0053,-3.005,-2.9869,0,0,0,0,0,-2.9837,-2.9871,-2.9872,-2.9932,-2.994,-2.9931,-2.9949,-2.9935,-2.9948,-2.9954,-2.9956,-2.9971,-3.0001,-3.0022,-3.005,-3.0123,-3.0124,-3.0158,-3.017,-3.0179,-3.0187,-3.0225,-3.024,-3.0083,-3.0083,-3.0083,0,0,-2.9882,-2.9888,-2.9911,-2.9945,-2.9954,-2.999,-2.9936,-2.9977,-3.0003,-2.996,-3.0013,-3.0016,-3.003,-3.0095,-3.0124,-3.01,-3.023,-3.0188,-3.0195,-3.0198,-3.0233,-3.0248,-3.0261,-3.0087,-3.0087,-3.0086,0,0,-2.9982,-2.999,-3.0041,-3.0051,-3.0066,-3.0059,-3.0072,-3.008,-3.0079,-3.0133,-3.0101,-3.0132,-3.0185,-3.0196,-3.0209,-3.0314,-3.0287,-3.0324,-3.0383,-3.0421,-3.0433,-3.0444,-3.048,-3.0493,-3.0332,-3.0332,-3.0332,0,-3.0036,-3.0089,-3.007,-3.0113,-3.0128,-3.0091,-3.0142,-3.0153,-3.0176,-3.0188,-3.0161,-3.0226,-3.0234,-3.03,-3.0326,-3.0338,-3.0351,-3.0322,-3.0433,-3.0443,-3.0453,-3.0487,-3.0501,-3.0336,-3.0335,-3.0335,-3.0335,0,-3.0154,-3.0191,-3.023,-3.0253,-3.0274,-3.032,-3.0308,-3.0331,-3.0315,-3.0311,-3.0365,-3.0373,-3.0401,-3.0416,-3.0401,-3.0481,-3.0466,-3.0436,-3.0388,-3.0473,-3.0504,-3.0517,-3.0342,-3.034,-3.0339,-3.0338,0,0,-3.0293,-3.0305,-3.032,-3.0329,-3.0343,-3.0371,-3.0416,-3.0444,-3.0463,-3.0481,-3.0517,-3.0563,-3.0536,-3.0551,-3.0537,-3.057,-3.0651,-3.0536,-3.0536,-3.0556,-3.0737,-3.0758,-3.0774,-3.0634,-3.0636,-3.0638,-3.0736,0,-3.0392,-3.0468,-3.0453,-3.0528,-3.0561,-3.0527,-3.0566,-3.0578,-3.0576,-3.0604,-3.0601,-3.0634,-3.0596,-3.0605,-3.0636,-3.0634,-3.0686,-3.0627,-3.0667,-3.0668,-3.0663,-3.0791,-3.0813,-3.0904,-3.0748,-3.075,-3.0752,0,-3.0516,-3.0538,-3.0617,-3.0624,-3.0638,-3.0673,-3.0696,-3.0724,-3.0737,-3.0733,-3.075,-3.0729,-3.0773,-3.0726,-3.0786,-3.0746,-3.0761,-3.0763,-3.0766,-3.0768,-3.0714,-3.0795,-3.0933,-3.0947,-3.0771,-3.077,-3.0768,0,-3.0608,-3.0658,-3.071,-3.072,-3.073,-3.0756,-3.0761,-3.0772,-3.0789,-3.081,-3.0821,-3.0847,-3.0861,-3.0882,-3.0869,-3.0836,-3.0931,-3.0882,-3.0928,-3.0928,-3.0948,-3.0947,-3.109,-3.0961,-3.0961,-3.096,-3.096,0,-3.0719,-3.0768,-3.0752,-3.0784,-3.0838,-3.082,-3.0873,-3.0875,-3.0885,-3.0916,-3.0889,-3.0919,-3.0901,-3.093,-3.092,-3.0971,-3.0978,-3.0975,-3.0971,-3.0977,-3.0977,-3.0985,-3.0978,-3.0964,-3.0963,-3.0962,-3.0962,0,-3.0831,-3.0822,-3.0877,-3.0882,-3.0885,-3.0924,-3.0928,-3.0958,-3.0954,-3.0995,-3.1003,-3.0997,-3.1029,-3.1019,-3.1054,-3.1047,-3.1111,-3.11,-3.1107,-3.1103,-3.1149,-3.1144,-3.1302,-3.1321,-3.1181,-3.1182,-3.1183,0,-3.0901,-3.0938,-3.0947,-3.0966,-3.0974,-3.1006,-3.1023,-3.1007,-3.1026,-3.1044,-3.1072,-3.1102,-3.1125,-3.1179,-3.1177,-3.1203,-3.1192,-3.1245,-3.1196,-3.1199,-3.1191,-3.1189,-3.1192,-3.1255,-3.1256,-3.1258,-3.1259,0,-3.1027,-3.1021,-3.1047,-3.1072,-3.1094,-3.1113,-3.1129,-3.1147,-3.1131,-3.1154,-3.1187,-3.1205,-3.1241,-3.1271,-3.1295,-3.13,-3.1277,-3.1275,-3.1286,-3.1291,-3.1293,-3.1291,-3.1132,-3.1271,-3.1269,-3.1269,-3.1268,-3.1267,-3.1119,-3.115,-3.1161,-3.1191,-3.1202,-3.1218,-3.1246,-3.1245,-3.1272,-3.13,-3.1288,-3.1326,-3.1338,-3.1368,-3.1376,-3.1405,-3.1385,-3.1402,-3.1406,-3.1411,-3.1416,-3.1289,-3.141,-3.141,-3.1409,-3.1409,-3.1409,0,-3.1243,-3.1248,-3.1276,-3.1299,-3.1323,-3.1299,-3.1316,-3.1337,-3.1371,-3.1384,-3.1407,-3.1445,-3.1474,-3.1474,-3.1501,-3.1524,-3.1514,-3.1532,-3.1529,-3.153,-3.1433,-3.142,-3.1539,-3.1539,-3.1539,-3.1539,-3.1539,-3.1539,-3.1309,-3.136,-3.1355,-3.141,-3.1415,-3.1451,-3.1463,-3.1477,-3.1487,-3.153,-3.1554,-3.1554,-3.1562,-3.1589,-3.1615,-3.1614,-3.1624,-3.1646,-3.1641,-3.155,-3.1537,-3.1525,-3.1512,-3.1649,-3.1649,-3.1736,-3.1736,-3.1737]},{"header":{"parameterUnit":"m.s-1","parameterCategory":1,"la1":30.2991,"la2":30.254,"lo1":-89.0895,"lo2":-89.0444,"dy":0.0017,"dx":0.0017,"nx":28,"ny":28,"refTime":"2024-04-06T21:00:00:Z","depth":0,"parameterNumber":3,"parameterNumberName":"V-component_of_WINDS"},"data":[0,0,0,0,0,0,0,0,0,0,0,0,0,0,0,0,0,0,0,0,0,0,0,0,0,0,0,0,0,0,0,0,0,0,0,0,0,0,0,0,0,0,0,0,0,0,0,0,0,0,0,0,0,0,0,0,0,0,2.9888,2.9888,0,2.9905,2.9905,2.9905,2.9846,2.9845,2.9843,2.9841,2.9856,2.9858,2.986,0,0,0,0,0,0,0,0,0,0,0,0,0,2.9803,2.9805,2.9888,2.9889,2.9889,2.9905,2.9905,2.9905,2.9847,2.9844,2.9842,2.984,2.9855,2.9857,2.986,0,0,0,0,0,0,0,0,0,0,0,0,0,2.9832,2.9806,2.9888,2.9861,2.9859,2.9905,2.9905,2.9905,2.9847,2.9844,2.9842,2.9839,2.9854,2.9857,2.986,2.9932,0,0,2.9869,2.9871,0,0,0,0,0,0,0,0,2.983,2.9835,2.9865,2.9863,2.9861,2.9871,2.988,2.9914,2.9848,2.9852,2.9841,2.9838,2.9863,2.9865,2.9874,2.9932,2.9933,2.987,2.9872,2.9873,2.9874,0,0,0,0,0,0,0,2.9829,2.9834,2.9895,2.9866,2.9863,2.9848,2.9849,2.9886,2.9872,2.9851,2.9847,2.985,2.9861,2.9871,2.9874,2.9933,2.987,2.9872,2.9874,2.9875,3.005,3.0053,0,0,0,0,0,0,2.983,2.9833,2.9894,2.9895,2.9839,2.9851,2.9853,2.987,2.9871,2.9869,2.9852,2.9847,2.9867,2.987,2.9874,2.9957,2.9873,2.9876,2.9877,3.0047,3.0051,3.0054,0,0,0,0,0,0,2.9829,2.9836,2.9893,2.9863,2.9869,2.9856,2.9876,2.9872,2.9882,2.9872,2.9869,2.9865,2.9865,2.987,2.9918,2.9956,2.9877,2.988,3.0044,3.0048,3.0052,3.0124,0,0,0,0,0,0,2.9827,2.9836,2.9864,2.9864,2.9871,2.9938,2.9878,2.9874,2.9887,2.9881,2.9883,2.9881,2.9863,2.9913,2.9921,2.9959,2.9882,3.004,3.0046,3.0051,3.0118,3.013,3.014,0,0,0,0,0,2.9824,2.9883,2.9866,2.9873,2.9905,2.994,2.9944,2.9923,2.9891,2.9918,2.9912,2.9881,2.9951,2.9919,2.9926,2.9966,3.0038,3.0044,3.0051,3.0113,3.0127,3.014,0,0,0,0,0,0,2.9887,2.9882,2.9863,2.9924,2.9933,2.993,2.9964,2.994,2.9957,2.9951,2.9923,2.9924,2.9977,2.9977,2.9941,3.0035,2.9989,2.9997,3.0033,3.0047,3.0058,3.0057,2.9885,0,0,0,0,0,2.9908,2.9938,2.9932,2.9986,2.9992,2.9977,2.9992,2.9975,2.9983,2.9986,2.9983,2.9991,3.0015,3.0031,3.0053,3.0118,3.0117,3.0149,3.016,3.0169,3.0176,3.021,3.0224,3.0075,3.0075,3.0075,0,0,2.9951,2.9953,2.9973,2.9999,3.0004,3.0034,2.9981,3.0015,3.0037,2.9991,3.0036,3.0035,3.0042,3.0098,3.0123,3.01,3.0218,3.0177,3.0185,3.0187,3.0218,3.0232,3.0244,3.0079,3.0078,3.0078,0,0,3.0046,3.0051,3.0096,3.0102,3.0111,3.0101,3.0112,3.0113,3.011,3.0155,3.0121,3.0147,3.0189,3.0195,3.0204,3.0301,3.0273,3.0309,3.0367,3.04,3.0412,3.0422,3.0456,3.0468,3.0316,3.0317,3.0317,0,3.0099,3.0144,3.0122,3.0159,3.0171,3.0132,3.0177,3.0184,3.0199,3.0208,3.0181,3.0233,3.0235,3.0292,3.0316,3.0325,3.0336,3.0308,3.0412,3.0422,3.0431,3.0463,3.0476,3.0321,3.032,3.032,3.0319,0,3.0208,3.024,3.0275,3.0291,3.0307,3.0348,3.0332,3.0351,3.0333,3.0326,3.0372,3.0373,3.0394,3.0406,3.0389,3.0461,3.0446,3.0417,3.0369,3.045,3.0479,3.0492,3.0327,3.0325,3.0324,3.0323,0,0,3.0341,3.0346,3.0359,3.0365,3.0372,3.0396,3.0435,3.0456,3.0472,3.0484,3.0515,3.0552,3.0524,3.0534,3.0518,3.0547,3.0623,3.0513,3.0513,3.0532,3.0701,3.0723,3.0737,3.0605,3.0607,3.0609,3.07,0,3.0434,3.0501,3.0482,3.0549,3.0578,3.0541,3.0575,3.0582,3.0577,3.0599,3.0593,3.0619,3.0581,3.0587,3.0614,3.0608,3.0656,3.0601,3.0632,3.0634,3.0631,3.0753,3.0775,3.0861,3.0712,3.0713,3.0715,0,3.055,3.0567,3.0637,3.0639,3.065,3.0681,3.0698,3.0721,3.0728,3.0722,3.0734,3.0711,3.0748,3.0702,3.0752,3.0716,3.0727,3.0726,3.0729,3.073,3.0678,3.0756,3.0888,3.0901,3.0733,3.0732,3.073,0,3.0639,3.068,3.0726,3.0733,3.0737,3.0759,3.0762,3.0766,3.078,3.0796,3.0804,3.0823,3.0834,3.0849,3.0832,3.08,3.0885,3.0837,3.0879,3.088,3.0898,3.0897,3.1033,3.0908,3.0908,3.0907,3.0907,0,3.0743,3.0787,3.0766,3.0795,3.0843,3.0821,3.0869,3.0867,3.0872,3.0899,3.0869,3.0894,3.0871,3.0894,3.0881,3.0924,3.0929,3.0925,3.092,3.0927,3.0927,3.0933,3.0926,3.0911,3.091,3.0909,3.0909,0,3.085,3.0839,3.0887,3.0887,3.0888,3.0923,3.0922,3.0948,3.094,3.0975,3.0982,3.097,3.0996,3.098,3.1007,3.0998,3.1054,3.1042,3.1052,3.1048,3.1091,3.1087,3.1235,3.1253,3.1117,3.1119,3.112,0,3.0917,3.095,3.0954,3.097,3.0975,3.1001,3.1015,3.0995,3.1011,3.1022,3.1046,3.107,3.1088,3.1131,3.1124,3.1144,3.1132,3.1182,3.1134,3.114,3.1131,3.1129,3.1132,3.1192,3.1193,3.1194,3.1196,0,3.1036,3.1029,3.1051,3.1071,3.1089,3.1103,3.1115,3.113,3.111,3.1129,3.1156,3.117,3.1197,3.1221,3.1238,3.1239,3.1214,3.1211,3.1222,3.1228,3.1232,3.1229,3.1077,3.1207,3.1206,3.1205,3.1205,3.1204,3.1124,3.1152,3.1159,3.1184,3.1191,3.1203,3.1227,3.1223,3.1245,3.1266,3.1253,3.1284,3.129,3.1311,3.1316,3.1339,3.1319,3.1334,3.1338,3.1342,3.1347,3.1229,3.1342,3.1342,3.1342,3.1341,3.1341,0,3.1241,3.1244,3.1268,3.1285,3.1305,3.1281,3.1293,3.1311,3.1339,3.1347,3.1365,3.1396,3.1419,3.1414,3.1434,3.1454,3.1443,3.146,3.1457,3.1458,3.1365,3.1353,3.1468,3.1468,3.1468,3.1468,3.1468,3.1468,3.1304,3.1349,3.1343,3.139,3.1392,3.1423,3.1432,3.1443,3.1449,3.1485,3.1504,3.1501,3.1503,3.1524,3.1543,3.1541,3.1549,3.1571,3.1564,3.1477,3.1465,3.1453,3.1441,3.1573,3.1573,3.1655,3.1656,3.1656]}]]